Weather History for Scottsbluff, NE

Change the Weather History Date:

Wednesday, July 16, 2014

  Actual Average Record
Temperature  
Mean Temperature 61 °F 74 °F  
Max Temperature 65 °F 90 °F 108 °F (2006)
Min Temperature 57 °F 59 °F 47 °F (1917)
Degree Days  
Heating Degree Days 4 0  
Month to date heating degree days 7 1  
Since 1 June heating degree days 60 61  
Since 1 July heating degree days 7 1  
Cooling Degree Days 0 10  
Month to date cooling degree days 119 140  
Year to date cooling degree days 241 289  
Since 1 June cooling degree days 214 266  
Growing Degree Days 10 (Base 50)    
Moisture  
Dew Point 58 °F    
Average Humidity 89    
Maximum Humidity 100    
Minimum Humidity 78    
Precipitation  
Precipitation 0.12 in 0.06 in 1.50 in (1938)
Month to date precipitation 1.33 0.96  
Year to date precipitation 10.21 10.13  
Snow  
Snow 0.00 in 0.00 in - ()
Month to date snowfall 0.0 0.0  
Since 1 July snowfall 0.0 0.0  
Snow Depth 0.00 in    
Sea Level Pressure  
Sea Level Pressure 30.03 in    
Wind  
Wind Speed 9 mph (ESE)    
Max Wind Speed 17 mph    
Max Gust Speed 22 mph    
Visibility 9 miles    
Events Rain , Thunderstorm    
T = Trace of Precipitation, MM = Missing Value Source: NWS Daily Summary

Daily Weather History Graph

Daily Weather History Graph

Search for Another Location

Airport:

Trip Planner

Search our weather history database for the weather conditions in past years. The results will help you decide how hot, cold, wet, or windy it might be!

Date:

Astronomy

Jul. 16, 2014 Rise Set
Actual Time 5:33 AM MDT 8:27 PM MDT
Civil Twilight 5:00 AM MDT 9:00 PM MDT
Nautical Twilight 4:18 AM MDT 9:41 PM MDT
Astronomical Twilight 3:29 AM MDT 10:30 PM MDT
Moon 11:06 PM MDT (7/16) 10:45 AM MDT (7/16)
Length of Visible Light 15h 59m
Length of Day
14h 53m
Waning Gibbous, 75% of the Moon is Illuminated
Jul 16
Waning Gibbous
Jul 18
Last Quarter
Jul 26
New
Aug 3
First Quarter
Aug 10
Full

Hourly Weather History & Observations

Time (MDT) Temp. Dew Point Humidity Pressure Visibility Wind Dir Wind Speed Gust Speed Precip Events Conditions
12:25 AM 61.0 °F 57.0 °F 87% 30.11 in 10.0 mi ENE 3.5 mph - 0.01 in Rain , Thunderstorm Light Rain
12:41 AM 60.1 °F 57.0 °F 90% 30.12 in 10.0 mi NE 6.9 mph - 0.02 in Rain , Thunderstorm Light Rain
12:53 AM 61.0 °F 57.0 °F 87% 29.99 in 10.0 mi ESE 9.2 mph - 0.03 in Rain , Thunderstorm Light Rain
1:04 AM 60.1 °F 57.0 °F 90% 30.08 in 8.0 mi ESE 13.8 mph - 0.01 in Rain Light Rain
1:53 AM 59.0 °F 59.0 °F 100% 29.94 in 9.0 mi SE 9.2 mph - 0.06 in Rain Light Rain
2:53 AM 59.0 °F 59.0 °F 100% 29.94 in 10.0 mi ENE 6.9 mph - 0.00 in   Overcast
3:09 AM 59.0 °F 57.9 °F 96% 30.06 in 5.0 mi East 11.5 mph - 0.03 in Rain Heavy Rain
3:31 AM 59.0 °F 59.0 °F 100% 30.03 in 10.0 mi East 15.0 mph - 0.05 in   Overcast
3:42 AM 59.0 °F 59.0 °F 100% 30.03 in 10.0 mi ESE 13.8 mph - 0.05 in   Overcast
3:53 AM 59.0 °F 59.0 °F 100% 29.92 in 10.0 mi East 13.8 mph - 0.05 in   Overcast
4:53 AM 59.0 °F 59.0 °F 100% 29.93 in 9.0 mi ESE 8.1 mph - N/A   Overcast
5:04 AM 59.0 °F 59.0 °F 100% 30.05 in 9.0 mi ESE 8.1 mph - N/A   Overcast
5:19 AM 59.0 °F 59.0 °F 100% 30.06 in 8.0 mi ESE 6.9 mph - N/A   Overcast
5:34 AM 59.0 °F 59.0 °F 100% 30.06 in 8.0 mi ESE 8.1 mph - N/A   Overcast
5:53 AM 59.0 °F 59.0 °F 100% 29.94 in 8.0 mi ESE 6.9 mph - N/A   Overcast
6:14 AM 59.0 °F 59.0 °F 100% 30.06 in 8.0 mi ESE 5.8 mph - N/A   Overcast
6:38 AM 59.0 °F 59.0 °F 100% 30.05 in 7.0 mi East 3.5 mph - N/A   Overcast
6:53 AM 59.0 °F 59.0 °F 100% 29.95 in 8.0 mi East 4.6 mph - N/A   Overcast
7:00 AM 59.0 °F 59.0 °F 100% 30.06 in 8.0 mi East 4.6 mph - N/A   Overcast
7:53 AM 60.1 °F 60.1 °F 100% 29.96 in 7.0 mi ESE 11.5 mph - N/A   Overcast
8:11 AM 60.1 °F 60.1 °F 100% 30.06 in 6.0 mi ESE 12.7 mph - N/A   Overcast
8:53 AM 59.0 °F 57.9 °F 96% 29.98 in 9.0 mi East 11.5 mph - N/A   Overcast
9:10 AM 60.1 °F 57.9 °F 93% 30.07 in 9.0 mi East 9.2 mph - N/A   Overcast
9:53 AM 60.1 °F 57.9 °F 93% 29.99 in 9.0 mi ESE 10.4 mph - N/A   Overcast
10:53 AM 62.1 °F 57.9 °F 86% 29.99 in 10.0 mi East 8.1 mph - N/A   Overcast
11:21 AM 62.1 °F 57.9 °F 86% 30.08 in 10.0 mi ESE 9.2 mph - N/A   Overcast
11:53 AM 63.0 °F 57.9 °F 84% 29.99 in 10.0 mi ESE 8.1 mph - N/A   Overcast
12:53 PM 64.0 °F 57.9 °F 80% 29.99 in 10.0 mi ESE 6.9 mph - N/A   Overcast
1:25 PM 63.0 °F 57.9 °F 84% 30.08 in 10.0 mi SSE 9.2 mph - 0.00 in Rain Light Rain
1:34 PM 63.0 °F 57.9 °F 84% 30.08 in 10.0 mi SE 9.2 mph - 0.00 in Rain Light Rain
1:53 PM 64.0 °F 59.0 °F 84% 29.98 in 10.0 mi SE 9.2 mph - 0.00 in Rain Light Rain
2:53 PM 64.9 °F 57.9 °F 78% 29.98 in 10.0 mi East 13.8 mph - 0.01 in   Overcast
3:53 PM 64.0 °F 57.0 °F 78% 29.99 in 10.0 mi ESE 13.8 mph - N/A   Overcast
4:53 PM 62.1 °F 57.0 °F 84% 29.99 in 10.0 mi East 12.7 mph - N/A   Overcast
5:03 PM 63.0 °F 57.0 °F 81% 30.07 in 10.0 mi East 12.7 mph - N/A   Mostly Cloudy
5:53 PM 62.1 °F 55.9 °F 80% 30.00 in 10.0 mi SE 9.2 mph - N/A   Overcast
6:53 PM 62.1 °F 55.9 °F 80% 30.01 in 10.0 mi SE 11.5 mph - N/A   Overcast
7:53 PM 61.0 °F 55.9 °F 83% 30.01 in 10.0 mi ESE 9.2 mph - N/A   Overcast
8:53 PM 60.1 °F 57.0 °F 90% 30.02 in 10.0 mi Variable 4.6 mph 23.0 mph N/A   Overcast
9:31 PM 59.0 °F 57.0 °F 93% 30.12 in 8.0 mi ESE 9.2 mph - N/A   Overcast
9:53 PM 59.0 °F 57.9 °F 96% 30.04 in 7.0 mi ESE 6.9 mph - N/A   Overcast
10:22 PM 59.0 °F 57.2 °F 94% 30.12 in 9.0 mi ESE 8.1 mph - N/A   Overcast
10:27 PM 59.0 °F 57.0 °F 93% 30.11 in 9.0 mi ESE 6.9 mph - N/A   Overcast
10:41 PM 59.0 °F 57.2 °F 94% 30.11 in 10.0 mi SE 9.2 mph - N/A   Overcast
10:53 PM 57.9 °F 57.0 °F 97% 30.03 in 10.0 mi ESE 9.2 mph - N/A   Overcast
11:14 PM 57.9 °F 57.0 °F 97% 30.11 in 10.0 mi ESE 8.1 mph - N/A   Overcast
11:26 PM 57.9 °F 55.9 °F 93% 30.10 in 10.0 mi ESE 8.1 mph - N/A   Overcast
11:39 PM 57.9 °F 55.9 °F 93% 30.10 in 10.0 mi SE 9.2 mph - N/A   Overcast
11:53 PM 57.9 °F 55.9 °F 93% 30.02 in 9.0 mi ESE 9.2 mph - N/A   Overcast